[TLELIST] Archives

 

[list_settings.list_name] Current TLEs

August 19th 2022 PST

HST 1 20580U 90037B 22230.85224990 .00002226 00000-0 11998-3 0 9995 2 20580 28.4698 115.2731 0002513 351.4718 55.9534 15.10773274575661 ISS (ZARYA) 1 25544U 98067A 22231.33830959 .00004930 00000-0 93573-4 0 9997 2 25544 51.6438 23.7306 0005524 137.1710 62.1113 15.50228062354979 CXO 1 25867U 99040B 22231.51456218 .00000474 00000-0 00000+0 0 9996 2 25867 43.6100 229.9926 8884829 237.3159 0.5737 0.37808019 23193 ____________________________________________________________________ These 2-Line ...Continue Reading

[list_settings.list_name] Current TLEs

August 18th 2022 PST

HST 1 20580U 90037B 22230.14026068 .00002312 00000-0 12502-3 0 9991 2 20580 28.4697 119.9923 0002496 343.5829 143.8098 15.10771222575820 ISS (ZARYA) 1 25544U 98067A 22230.34947701 .00005524 00000-0 10390-3 0 9996 2 25544 51.6431 28.6313 0005548 135.0587 302.1078 15.50219935354829 CXO 1 25867U 99040B 22231.51456218 .00000474 00000-0 00000+0 0 9996 2 25867 43.6100 229.9926 8884829 237.3159 0.5737 0.37808019 23193 ____________________________________________________________________ These 2-Line ...Continue Reading

[list_settings.list_name] Current TLEs

August 17th 2022 PST

HST 1 20580U 90037B 22228.42974436 .00001989 00000-0 10610-3 0 9997 2 20580 28.4695 131.3295 0002438 324.2184 201.6262 15.10763406575296 ISS (ZARYA) 1 25544U 98067A 22229.38349770 .00005692 00000-0 10687-3 0 9995 2 25544 51.6421 33.4169 0005528 131.1178 311.5832 15.50209411354675 CXO 1 25867U 99040B 22231.51456218 .00000474 00000-0 00000+0 0 9996 2 25867 43.6100 229.9926 8884829 237.3159 0.5737 0.37808019 23193 ____________________________________________________________________ These 2-Line ...Continue Reading

[list_settings.list_name] Current TLEs

August 16th 2022 PST

HST 1 20580U 90037B 22228.15685986 .00001942 00000-0 10335-3 0 9999 2 20580 28.4695 133.1382 0002427 321.0246 157.7246 15.10762170575510 ISS (ZARYA) 1 25544U 98067A 22228.34961701 .00005456 00000-0 10280-3 0 9991 2 25544 51.6420 38.5419 0005548 127.4822 301.5922 15.50195634354517 CXO 1 25867U 99040B 22228.87116354 .00000417 00000-0 00000-0 0 9993 2 25867 43.6848 230.2227 8880497 237.1536 0.7580 0.37807153 12032 ____________________________________________________________________ These 2-Line ...Continue Reading

[list_settings.list_name] Current TLEs

August 15th 2022 PST

HST 1 20580U 90037B 22226.82204247 .00001759 00000-0 92567-4 0 9992 2 20580 28.4694 141.9854 0002409 305.9425 98.6841 15.10756800575056 ISS (ZARYA) 1 25544U 98067A 22227.31590912 .00005705 00000-0 10717-3 0 9991 2 25544 51.6426 43.6650 0005592 123.3925 293.0763 15.50184323354358 CXO 1 25867U 99040B 22228.87116354 .00000417 00000-0 00000-0 0 9993 2 25867 43.6848 230.2227 8880497 237.1536 0.7580 0.37807153 12032 ____________________________________________________________________ These 2-Line ...Continue Reading

[list_settings.list_name] Current TLEs

August 14th 2022 PST

HST 1 20580U 90037B 22225.89929767 .00001768 00000-0 93115-4 0 9999 2 20580 28.4692 148.1013 0002394 295.1538 120.9618 15.10753665574919 ISS (ZARYA) 1 25544U 98067A 22226.35017795 .00006064 00000-0 11345-3 0 9994 2 25544 51.6424 48.4516 0005604 119.3049 304.2072 15.50174057354201 CXO 1 25867U 99040B 22226.22689299 .00000498 00000-0 00000+0 0 9991 2 25867 43.7373 230.4033 8874657 237.0398 0.7745 0.37807729 23178 ____________________________________________________________________ These 2-Line ...Continue Reading

[list_settings.list_name] Current TLEs

August 13th 2022 PST

HST 1 20580U 90037B 22225.18858388 .00001761 00000-0 92741-4 0 9998 2 20580 28.4691 152.8122 0002387 287.0186 216.0583 15.10751138575071 ISS (ZARYA) 1 25544U 98067A 22225.13271216 .00006462 00000-0 12042-3 0 9996 2 25544 51.6425 54.4836 0005702 116.2033 348.6352 15.50159232354012 CXO 1 25867U 99040B 22226.22689299 .00000498 00000-0 00000+0 0 9991 2 25867 43.7373 230.4033 8874657 237.0398 0.7745 0.37807729 23178 ____________________________________________________________________ These 2-Line ...Continue Reading

[list_settings.list_name] Current TLEs

August 12th 2022 PST

HST 1 20580U 90037B 22223.91637227 .00001753 00000-0 92277-4 0 9999 2 20580 28.4690 161.2447 0002379 272.0396 138.1313 15.10746808574872 ISS (ZARYA) 1 25544U 98067A 22224.35081675 .00007002 00000-0 12986-3 0 9995 2 25544 51.6444 58.3608 0005725 111.5505 306.9934 15.50149505353890 CXO 1 25867U 99040B 22226.22689299 .00000498 00000-0 00000+0 0 9991 2 25867 43.7373 230.4033 8874657 237.0398 0.7745 0.37807729 23178 ____________________________________________________________________ These 2-Line ...Continue Reading

[list_settings.list_name] Current TLEs

August 11th 2022 PST

HST 1 20580U 90037B 22222.28520418 .00001670 00000-0 87418-4 0 9990 2 20580 28.4689 172.0563 0002394 252.9430 268.2211 15.10741284574361 ISS (ZARYA) 1 25544U 98067A 22223.38425212 .00019798 00000-0 35202-3 0 9997 2 25544 51.6441 63.1520 0006113 113.1167 307.9498 15.50146888353749 CXO 1 25867U 99040B 22223.58271741 .00000594 00000-0 00000-0 0 9994 2 25867 43.7770 230.5719 8870912 236.9464 0.7372 0.37811777 12018 ____________________________________________________________________ These 2-Line ...Continue Reading

[list_settings.list_name] Current TLEs

August 10th 2022 PST

HST 1 20580U 90037B 22221.20253565 .00001693 00000-0 88762-4 0 9995 2 20580 28.4689 179.2321 0002418 240.3773 140.8348 15.10738560574460 ISS (ZARYA) 1 25544U 98067A 22222.34086806 .00006498 00000-0 12047-3 0 9999 2 25544 51.6456 68.3177 0005303 102.0023 252.6646 15.50300181353578 CXO 1 25867U 99040B 22223.58271741 .00000594 00000-0 00000-0 0 9994 2 25867 43.7770 230.5719 8870912 236.9464 0.7372 0.37811777 12018 ____________________________________________________________________ These 2-Line ...Continue Reading
  • This mailing list is a public mailing list - anyone may join or leave, at any time.
  • This mailing list is announce-only.

International Space Station (ISS) / Hubble Space Telescope (HST) / Chandra X-Ray Observatory Orbital Data via EMAIL

Privacy Policy:

Private list